Find Starlink 31908

NORAD ID: 59901 Int'l Des: 2024-100 Owner: SPXS Country: US Constellation: starlink operational
LEOCIRCULAR

現在のビュー

3D地球を読み込み中...

About Starlink 31908

Starlink 31908 (NORAD 59901) is a starlink constellation satellite (v2 mini) launched May 28, 2024 by SPXS of US. It operates in LEO, CIRCULAR orbit with a mass of 730.00 kg.

次回通過

Passes for default location (London). Set your location on the main map for personalized predictions.

高度履歴

Loading altitude history...

軌道要素

1 59901U 24100S 26237.09452311 -.00000112 00000-0 54490-5 0 9998
2 59901 43.0023 247.2926 0001408 268.4420 91.6271 15.27575830126984
Epoch: Aug 25, 2026 • Age: 13 hours

現在のステータス

高度 487.0 km
遠地点 / 近地点 N/A
速度 7.63 km/s
衛星直下点 42.49°N, 143.92°E
打ち上げ日 May 28, 2024
運用期間 2.2 years
タイプ internet

技術仕様

分類 Payload
質量 730.00 kg
乾燥質量 700.00 kg
総質量 730.00 kg
長さ 0.30 m
直径 4.10 m
スパン 29.00 m
形状 Box + pan
製造者 SPXS
バスタイプ Starlink V2M
フェーズステータス In Orbit
所有者/国 SPXS/US

Most Searched